QPF
0.00 0.00 0.00 0.00 0.00 0.00 0.00 0.00 0.00 0.00 0.00 0.00 0.00 0.00 0.00 0.00 0.00 0.00 0.00 0.00 0.00 0.00 0.00 0.00 0.00 0.00 0.00 0.00 0.00 0.00 0.00 0.00 0.00 0.00 0.00 0.00 0.00 0.00 0.00 0.00 0.00 0.00 0.00 0.01 0.00
0.00 0.00 0.00 0.00 0.00 0.00 0.00 0.00 0.00 0.00 0.00 0.00 0.00 0.00 0.00 0.00 0.00 0.00 0.00 0.00 0.00 0.00 0.00 0.00 0.00 0.00 0.00 0.00 0.00 0.00 0.00 0.00 0.00 0.00 0.00 0.00 0.00 0.00 0.00 0.00 0.00 0.00 0.00 0.00 0.00
0.00 0.00 0.00 0.00 0.00 0.00 0.00 0.00 0.00 0.00 0.00 0.00 0.00 0.00 0.00 0.00 0.00 0.00 0.00 0.00 0.00 0.00 0.00 0.00 0.00 0.00 0.00 0.00 0.00 0.00 0.00 0.00 0.00 0.00 0.00 0.00 0.00 0.00 0.00 0.00 0.00 0.00 0.00 0.00 0.00
0.00 0.00 0.00 0.00 0.00 0.00 0.00 0.00 0.00 0.00 0.00 0.00 0.00 0.00 0.00 0.00 0.00 0.00 0.00 0.00 0.00 0.00 0.00 0.00 0.00 0.00 0.00 0.00 0.00 0.00 0.00 0.00 0.00 0.00 0.00 0.00 0.00 0.00 0.00 0.00 0.00 0.00 0.00 0.00 0.00
0.00 0.00 0.00 0.00 0.00 0.00 0.00 0.00 0.00 0.00 0.00 0.00 0.00 0.00 0.00 0.00 0.00 0.00 0.00 0.00 0.00 0.00 0.00 0.00 0.00 0.00 0.00 0.00 0.00 0.00 0.00 0.00 0.00 0.00 0.00 0.00 0.00 0.00 0.00 0.00 0.00 0.00 0.00 0.00 0.00
0.00 0.00 0.00 0.00 0.00 0.00 0.00 0.00 0.00 0.00 0.00 0.00 0.00 0.00 0.00 0.00 0.00 0.00 0.00 0.00 0.00 0.00 0.00 0.00 0.00 0.00 0.00 0.00 0.00 0.00 0.00 0.00 0.00 0.00 0.00 0.00 0.00 0.00 0.00 0.00 0.00 0.00 0.00 0.00 0.00
0.00 0.00 0.00 0.00 0.00 0.00 0.00 0.00 0.00 0.00 0.00 0.00 0.00 0.00 0.00 0.00 0.00 0.00 0.00 0.00 0.00 0.00 0.00 0.00 0.00 0.00 0.00 0.00 0.00 0.00 0.00 0.00 0.00 0.00 0.00 0.00 0.00 0.00 0.00 0.00 0.00 0.00 0.00 0.00 0.00
0.00 0.00 0.00 0.00 0.00 0.00 0.00 0.00 0.00 0.00 0.00 0.00 0.00 0.00 0.00 0.00 0.00 0.00 0.00 0.00 0.00 0.00 0.00 0.00 0.00 0.00 0.00 0.00 0.00 0.00 0.00 0.00 0.00 0.00 0.00 0.00 0.00 0.00 0.00 0.00 0.00 0.00 0.00 0.00 0.00
0.00 0.00 0.00 0.00 0.00 0.00 0.00 0.00 0.00 0.00 0.00 0.00 0.00 0.00 0.00 0.00 0.00 0.00 0.00 0.00 0.00 0.00 0.00 0.00 0.00 0.00 0.00 0.00 0.00 0.00 0.00 0.00 0.00 0.00 0.00 0.00 0.00 0.00 0.00 0.00 0.00 0.00 0.00 0.00 0.00
0.00 0.00 0.00 0.00 0.00 0.00 0.00 0.00 0.00 0.00 0.00 0.00 0.00 0.00 0.00 0.00 0.00 0.00 0.00 0.00 0.00 0.00 0.00 0.00 0.00 0.00 0.00 0.00 0.00 0.00 0.00 0.00 0.00 0.00 0.00 0.00 0.00 0.00 0.00 0.00 0.00 0.00 0.00 0.00 0.00
0.00 0.00 0.00 0.00 0.00 0.00 0.00 0.00 0.00 0.00 0.00 0.00 0.00 0.00 0.00 0.00 0.00 0.00 0.00 0.00 0.00 0.00 0.00 0.00 0.00 0.00 0.00 0.00 0.00 0.00 0.00 0.00 0.00 0.00 0.00 0.00 0.00 0.00 0.00 0.00 0.00 0.00 0.00 0.00 0.00
0.00 0.00 0.00 0.00 0.00 0.00 0.00 0.00 0.00 0.00 0.00 0.00 0.00 0.00 0.00 0.00 0.00 0.00 0.00 0.00 0.00 0.00 0.00 0.00 0.00 0.00 0.00 0.00 0.00 0.00 0.00 0.00 0.00 0.00 0.00 0.00 0.00 0.00 0.00 0.00 0.00 0.00 0.00 0.00 0.00
0.00 0.00 0.00 0.00 0.00 0.00 0.00 0.00 0.00 0.00 0.00 0.00 0.00 0.00 0.00 0.00 0.00 0.00 0.00 0.00 0.00 0.00 0.00 0.00 0.00 0.00 0.00 0.00 0.00 0.00 0.00 0.00 0.00 0.00 0.00 0.00 0.00 0.00 0.00 0.00 0.00 0.00 0.00 0.00 0.00
0.00 0.00 0.00 0.00 0.00 0.00 0.00 0.00 0.00 0.00 0.00 0.00 0.00 0.00 0.00 0.00 0.00 0.00 0.00 0.00 0.00 0.00 0.00 0.00 0.00 0.00 0.00 0.00 0.00 0.00 0.00 0.00 0.00 0.00 0.00 0.00 0.00 0.00 0.00 0.00 0.00 0.00 0.00 0.00 0.00
0.00 0.00 0.00 0.00 0.00 0.00 0.00 0.00 0.00 0.00 0.00 0.00 0.00 0.00 0.00 0.00 0.00 0.00 0.00 0.00 0.00 0.00 0.00 0.00 0.00 0.00 0.00 0.00 0.00 0.00 0.00 0.00 0.00 0.00 0.00 0.00 0.00 0.00 0.00 0.00 0.00 0.00 0.00 0.00 0.00
0.00 0.00 0.00 0.00 0.00 0.00 0.00 0.00 0.00 0.00 0.00 0.00 0.00 0.00 0.00 0.00 0.00 0.00 0.00 0.00 0.00 0.00 0.00 0.00 0.00 0.00 0.00 0.00 0.00 0.00 0.00 0.00 0.00 0.00 0.00 0.00 0.00 0.00 0.00 0.00 0.00 0.00 0.00 0.00 0.00
0.00 0.00 0.00 0.00 0.00 0.00 0.00 0.00 0.00 0.00 0.00 0.00 0.00 0.00 0.00 0.00 0.00 0.00 0.00 0.00 0.00 0.00 0.00 0.00 0.00 0.00 0.00 0.00 0.00 0.00 0.00 0.00 0.00 0.00 0.00 0.00 0.00 0.00 0.00 0.00 0.00 0.00 0.00 0.00 0.00
0.00 0.00 0.00 0.00 0.00 0.00 0.00 0.00 0.00 0.00 0.00 0.00 0.00 0.00 0.00 0.00 0.00 0.00 0.00 0.00 0.00 0.00 0.00 0.00 0.00 0.00 0.00 0.00 0.00 0.00 0.00 0.00 0.00 0.00 0.00 0.00 0.00 0.00 0.00 0.00 0.00 0.00 0.00 0.00 0.01
0.00 0.00 0.00 0.00 0.00 0.00 0.00 0.00 0.00 0.00 0.00 0.00 0.00 0.00 0.00 0.00 0.00 0.00 0.00 0.00 0.00 0.00 0.00 0.00 0.00 0.00 0.00 0.00 0.00 0.00 0.00 0.00 0.00 0.00 0.00 0.00 0.00 0.00 0.00 0.00 0.00 0.00 0.00 0.00 0.00
0.00 0.00 0.00 0.00 0.00 0.00 0.00 0.00 0.00 0.00 0.00 0.00 0.00 0.00 0.00 0.00 0.00 0.00 0.00 0.00 0.00 0.00 0.00 0.00 0.00 0.00 0.00 0.00 0.00 0.00 0.00 0.00 0.00 0.00 0.00 0.00 0.00 0.00 0.00 0.00 0.00 0.00 0.00 0.00 0.00
0.00 0.00 0.00 0.00 0.00 0.00 0.00 0.00 0.00 0.00 0.00 0.00 0.00 0.00 0.00 0.00 0.00 0.00 0.00 0.00 0.00 0.00 0.00 0.00 0.00 0.00 0.00 0.00 0.00 0.00 0.00 0.00 0.00 0.00 0.00 0.00 0.00 0.00 0.00 0.00 0.00 0.00 0.00 0.00 0.00
0.00 0.00 0.00 0.00 0.00 0.00 0.00 0.00 0.00 0.00 0.00 0.00 0.00 0.00 0.00 0.00 0.00 0.00 0.00 0.00 0.00 0.00 0.00 0.00 0.00 0.00 0.00 0.00 0.00 0.00 0.00 0.00 0.00 0.00 0.00 0.00 0.00 0.00 0.00 0.00 0.00 0.00 0.00 0.00 0.00
0.00 0.00 0.00 0.00 0.00 0.00 0.00 0.00 0.00 0.00 0.00 0.00 0.00 0.00 0.00 0.00 0.00 0.00 0.00 0.00 0.00 0.00 0.00 0.00 0.00 0.00 0.00 0.00 0.00 0.00 0.00 0.00 0.00 0.00 0.00 0.00 0.00 0.00 0.00 0.00 0.00 0.00 0.00 0.00 0.00
0.00 0.00 0.00 0.00 0.00 0.00 0.00 0.00 0.00 0.00 0.00 0.00 0.00 0.00 0.00 0.00 0.00 0.00 0.00 0.00 0.00 0.00 0.00 0.00 0.00 0.00 0.00 0.00 0.00 0.00 0.00 0.00 0.00 0.00 0.00 0.00 0.00 0.00 0.00 0.00 0.00 0.00 0.00 0.00 0.00
0.00 0.00 0.00 0.00 0.00 0.00 0.00 0.00 0.00 0.00 0.00 0.00 0.00 0.00 0.00 0.00 0.00 0.00 0.00 0.00 0.00 0.00 0.00 0.00 0.00 0.00 0.00 0.00 0.00 0.00 0.00 0.00 0.00 0.00 0.00 0.00 0.00 0.00 0.00 0.00 0.00 0.00 0.00 0.00 0.00
0.00 0.00 0.00 0.00 0.00 0.00 0.00 0.00 0.00 0.00 0.00 0.00 0.00 0.00 0.00 0.00 0.00 0.00 0.00 0.00 0.00 0.00 0.00 0.00 0.00 0.00 0.00 0.00 0.00 0.00 0.00 0.00 0.00 0.00 0.00 0.00 0.00 0.00 0.00 0.00 0.00 0.00 0.00 0.00 0.00
0.00 0.00 0.00 0.00 0.00 0.00 0.00 0.00 0.00 0.00 0.00 0.00 0.00 0.00 0.00 0.00 0.00 0.00 0.00 0.00 0.00 0.00 0.00 0.00 0.00 0.00 0.00 0.00 0.00 0.00 0.00 0.00 0.00 0.00 0.00 0.00 0.00 0.00 0.00 0.00 0.00 0.00 0.00 0.00 0.00
MSLP
1018.07 1017.80 1017.61 1017.44 1017.22 1016.96 1016.72 1016.50 1016.26 1015.94 1015.68 1015.34 1015.09 1014.78 1014.33 1013.88 1013.08 1012.68 1011.32 1009.98 1009.93 1009.86 1009.96 1009.96 1009.82 1009.63 1009.67 1009.55 1009.74 1010.03 1009.98 1009.84 1009.76 1009.83 1009.59 1009.84 1009.83 1010.24 1010.22 1010.17 1010.34 1010.65 1011.10 1011.56 1012.93
1018.07 1017.81 1017.64 1017.39 1017.09 1016.86 1016.61 1016.44 1016.19 1015.91 1015.72 1015.28 1014.94 1014.60 1014.24 1013.89 1013.03 1011.53 1010.17 1009.91 1009.84 1009.88 1009.74 1009.59 1009.47 1009.45 1009.32 1009.51 1009.67 1009.65 1009.81 1009.45 1009.30 1009.20 1009.31 1009.58 1009.71 1009.97 1010.16 1010.16 1010.37 1010.89 1011.52 1012.09 1012.91
1018.11 1017.84 1017.56 1017.32 1017.03 1016.73 1016.45 1016.27 1016.03 1015.83 1015.54 1015.20 1014.83 1014.46 1014.06 1013.73 1012.42 1010.28 1009.84 1009.82 1009.79 1009.84 1009.71 1009.66 1009.59 1009.38 1009.30 1009.59 1009.62 1009.65 1009.39 1009.12 1008.67 1009.02 1009.15 1009.41 1009.64 1009.82 1009.90 1009.90 1009.80 1010.19 1011.37 1012.29 1012.90
1018.03 1017.75 1017.50 1017.23 1016.93 1016.63 1016.41 1016.16 1015.88 1015.70 1015.43 1015.08 1014.71 1014.34 1013.96 1013.52 1011.79 1010.03 1009.75 1009.49 1009.82 1009.89 1009.81 1009.66 1009.47 1009.34 1009.41 1009.43 1009.59 1009.39 1008.95 1008.78 1008.34 1008.66 1008.91 1009.18 1009.33 1009.53 1009.69 1009.42 1009.55 1009.89 1010.91 1011.92 1012.61
1018.04 1017.72 1017.42 1017.13 1016.84 1016.57 1016.26 1016.01 1015.80 1015.58 1015.32 1015.01 1014.61 1014.23 1013.72 1012.72 1010.68 1009.91 1009.82 1009.75 1009.98 1009.97 1009.70 1009.58 1009.43 1009.53 1009.41 1009.49 1009.35 1009.18 1008.60 1008.37 1008.18 1008.55 1008.69 1009.01 1009.13 1009.20 1009.23 1009.37 1009.64 1010.07 1011.07 1011.54 1012.11
1017.92 1017.62 1017.33 1017.05 1016.73 1016.40 1016.10 1015.84 1015.65 1015.47 1015.19 1014.94 1014.54 1014.25 1013.44 1011.82 1009.96 1009.95 1009.93 1010.04 1009.80 1009.75 1009.74 1009.55 1009.40 1009.54 1009.49 1009.45 1009.45 1009.03 1008.58 1008.08 1007.86 1008.16 1008.48 1008.75 1009.05 1009.25 1008.82 1009.47 1010.02 1010.43 1010.86 1011.40 1011.88
1017.79 1017.48 1017.19 1016.91 1016.58 1016.25 1015.96 1015.72 1015.50 1015.25 1014.99 1014.77 1014.54 1014.17 1013.00 1010.66 1009.81 1009.99 1009.94 1009.82 1009.80 1009.60 1009.50 1009.63 1009.59 1009.55 1009.61 1009.28 1009.41 1008.96 1008.40 1007.90 1007.99 1008.18 1008.26 1008.54 1008.71 1008.48 1008.82 1009.28 1009.74 1010.40 1010.84 1011.26 1011.53
1017.56 1017.31 1017.00 1016.72 1016.47 1016.14 1015.78 1015.42 1015.08 1014.91 1014.71 1014.59 1014.45 1013.97 1011.65 1009.88 1009.89 1009.78 1009.76 1009.79 1009.87 1009.71 1009.48 1009.71 1009.71 1009.67 1009.69 1009.69 1009.30 1009.04 1008.84 1008.30 1008.03 1008.20 1008.23 1008.43 1007.45 1007.59 1008.66 1009.20 1009.42 1009.88 1010.37 1010.94 1011.20
1017.24 1016.96 1016.74 1016.51 1016.22 1015.91 1015.60 1015.20 1014.63 1014.37 1014.48 1014.40 1014.24 1013.27 1010.71 1009.66 1009.57 1009.23 1009.39 1009.38 1009.70 1009.86 1009.83 1009.88 1009.87 1010.06 1009.95 1009.70 1009.32 1009.41 1008.95 1008.69 1008.11 1008.05 1008.21 1008.38 1007.28 1007.51 1008.38 1008.88 1009.28 1009.46 1009.69 1010.10 1010.63
1016.92 1016.59 1016.32 1016.12 1015.96 1015.76 1015.30 1014.90 1014.48 1014.34 1014.43 1014.27 1013.71 1013.03 1010.26 1009.49 1009.09 1009.24 1009.45 1009.29 1009.39 1009.70 1009.85 1009.92 1010.13 1010.06 1010.10 1009.83 1009.48 1009.57 1009.27 1008.80 1008.33 1008.15 1008.12 1007.92 1007.16 1007.54 1008.28 1008.67 1008.75 1009.07 1009.37 1009.65 1009.93
1016.63 1016.27 1015.99 1015.80 1015.68 1015.59 1015.12 1014.79 1014.83 1014.31 1013.74 1012.19 1011.58 1010.86 1009.79 1009.19 1009.11 1009.04 1009.26 1009.24 1009.34 1009.45 1009.55 1010.11 1009.86 1009.50 1009.71 1010.04 1010.11 1009.91 1009.46 1009.00 1007.65 1007.76 1007.87 1007.31 1006.87 1006.28 1007.61 1008.32 1008.57 1008.63 1008.78 1008.92 1008.95
1016.24 1015.90 1015.65 1015.47 1015.45 1015.43 1015.40 1013.86 1012.41 1012.15 1011.83 1011.25 1011.07 1010.50 1009.82 1009.45 1008.93 1008.92 1009.09 1009.01 1009.26 1009.36 1009.81 1009.92 1009.30 1009.43 1009.82 1009.86 1009.82 1009.49 1009.07 1008.19 1007.51 1007.56 1007.56 1007.04 1006.32 1005.82 1006.69 1007.04 1007.40 1007.69 1008.31 1008.36 1008.42
1015.71 1015.40 1015.25 1015.19 1015.22 1015.29 1014.39 1012.72 1011.97 1011.70 1011.19 1010.58 1010.23 1009.67 1009.12 1009.10 1008.49 1008.49 1008.70 1008.78 1009.00 1009.35 1009.51 1009.39 1009.31 1009.41 1009.40 1009.28 1009.11 1008.69 1008.56 1008.03 1007.90 1007.51 1007.57 1007.24 1005.87 1005.97 1006.86 1007.10 1007.39 1007.62 1007.83 1008.03 1007.91
1015.26 1014.96 1014.87 1014.94 1015.56 1014.24 1013.24 1012.06 1011.98 1011.78 1010.65 1010.04 1009.44 1008.70 1008.88 1008.56 1008.29 1008.18 1008.31 1008.36 1008.85 1009.08 1009.52 1009.36 1009.13 1009.10 1008.87 1008.59 1008.56 1008.02 1007.85 1007.86 1007.74 1007.61 1007.57 1007.83 1006.59 1006.11 1006.60 1006.58 1006.86 1006.92 1007.14 1007.22 1007.38
1014.84 1014.56 1014.52 1014.87 1014.32 1013.56 1012.31 1011.93 1011.83 1011.64 1009.78 1009.16 1008.55 1008.24 1008.40 1008.15 1007.87 1008.20 1008.20 1008.18 1008.52 1008.95 1009.45 1008.73 1008.56 1008.52 1008.22 1007.80 1008.02 1007.55 1007.68 1007.74 1007.77 1007.61 1007.70 1007.64 1007.34 1005.85 1006.15 1005.90 1005.92 1006.04 1006.02 1006.32 1006.61
1014.27 1014.16 1014.27 1014.70 1014.38 1012.52 1012.12 1011.86 1011.44 1010.47 1008.88 1008.20 1007.92 1007.92 1007.91 1007.80 1007.67 1008.03 1008.03 1008.17 1008.46 1008.60 1008.83 1008.31 1008.29 1008.11 1007.42 1007.43 1007.51 1007.41 1007.47 1007.47 1007.61 1007.51 1006.92 1007.47 1007.29 1005.36 1005.78 1006.01 1005.81 1005.45 1005.35 1005.61 1006.05
1013.53 1013.34 1013.96 1013.59 1012.69 1012.11 1011.97 1011.43 1010.39 1008.75 1008.28 1007.79 1007.44 1007.42 1007.34 1007.38 1007.42 1007.46 1007.74 1007.96 1008.09 1008.19 1008.11 1007.79 1007.25 1007.13 1007.12 1006.95 1007.13 1007.20 1006.96 1006.63 1006.58 1006.65 1006.65 1007.32 1006.97 1005.27 1005.54 1005.74 1005.82 1005.45 1004.97 1005.13 1005.61
1013.21 1013.19 1013.31 1012.84 1012.35 1012.09 1011.38 1010.53 1009.13 1008.38 1007.45 1007.18 1007.06 1007.18 1007.06 1007.18 1007.28 1007.46 1007.65 1007.81 1008.14 1008.14 1008.08 1007.44 1006.72 1006.50 1006.49 1006.32 1006.19 1006.73 1006.72 1006.43 1006.31 1006.47 1006.49 1006.93 1005.91 1004.86 1005.29 1005.57 1005.54 1005.27 1004.96 1004.87 1005.38
1013.53 1013.27 1012.86 1011.92 1012.05 1012.36 1010.89 1009.58 1008.84 1008.06 1007.50 1006.99 1006.97 1006.85 1006.97 1007.17 1007.18 1007.50 1007.66 1007.63 1007.51 1007.81 1007.76 1007.41 1006.73 1006.32 1006.15 1006.00 1006.27 1006.90 1006.79 1006.63 1006.58 1007.33 1006.53 1006.02 1005.34 1004.90 1005.06 1005.17 1005.18 1004.96 1004.84 1004.75 1005.02
1012.91 1012.23 1011.84 1011.67 1011.78 1011.38 1010.38 1009.70 1008.88 1008.23 1007.57 1007.10 1006.65 1006.80 1006.80 1007.20 1007.33 1007.56 1007.81 1008.04 1007.83 1007.81 1007.50 1007.31 1006.79 1005.96 1005.82 1005.97 1006.53 1006.52 1006.64 1006.68 1006.46 1006.22 1005.90 1005.57 1005.28 1004.71 1004.82 1004.90 1005.17 1005.01 1005.05 1005.05 1005.15
1012.18 1011.47 1011.54 1011.50 1011.48 1010.59 1010.11 1009.66 1008.85 1007.99 1007.73 1007.17 1006.83 1006.91 1007.31 1007.49 1007.58 1007.72 1008.00 1008.37 1008.29 1008.07 1007.95 1007.58 1007.23 1006.11 1005.88 1005.58 1005.67 1006.50 1006.33 1006.56 1006.36 1006.34 1005.66 1005.38 1004.70 1004.70 1005.00 1005.13 1005.26 1005.41 1005.44 1005.41 1005.44
1011.81 1011.28 1011.32 1011.18 1011.03 1011.32 1010.36 1009.97 1009.37 1008.33 1007.94 1007.39 1007.27 1007.41 1007.76 1008.04 1008.01 1008.06 1008.25 1008.50 1008.65 1008.45 1008.21 1008.10 1007.35 1006.22 1005.60 1005.61 1005.94 1005.85 1005.65 1005.65 1005.43 1006.36 1006.50 1005.74 1004.76 1004.71 1005.05 1005.41 1005.67 1005.60 1005.73 1005.87 1006.02
1012.30 1011.84 1011.25 1010.93 1011.06 1011.10 1010.63 1010.04 1009.55 1008.69 1008.53 1008.15 1008.25 1008.43 1008.52 1008.66 1008.92 1008.78 1008.80 1008.99 1008.96 1008.72 1008.66 1008.40 1007.79 1006.53 1005.68 1005.81 1005.96 1005.75 1005.80 1005.64 1005.57 1005.75 1005.95 1005.51 1004.63 1004.76 1005.04 1005.44 1006.06 1006.32 1006.20 1006.06 1006.14
1012.79 1012.38 1011.77 1011.71 1012.22 1011.58 1011.04 1010.50 1009.83 1009.56 1009.45 1009.31 1009.26 1009.16 1009.12 1009.36 1009.50 1009.27 1009.12 1009.19 1009.29 1009.16 1009.12 1008.80 1008.13 1007.30 1006.52 1006.19 1006.35 1005.77 1005.73 1005.82 1005.26 1005.23 1005.26 1005.08 1004.74 1004.61 1005.24 1006.12 1006.77 1006.89 1006.89 1006.50 1006.30
1013.80 1014.34 1014.33 1013.11 1012.76 1012.27 1011.80 1011.35 1010.56 1010.10 1009.93 1009.84 1009.75 1009.87 1009.87 1009.82 1009.79 1009.66 1009.71 1009.44 1009.35 1009.46 1009.38 1009.04 1008.32 1008.11 1007.40 1007.06 1006.90 1006.35 1005.84 1005.74 1005.48 1005.44 1005.33 1005.09 1005.51 1005.46 1006.51 1007.29 1007.79 1007.92 1007.46 1006.84 1006.61
1015.29 1015.37 1014.95 1014.28 1013.70 1012.98 1012.63 1012.18 1011.51 1011.10 1010.88 1010.47 1010.37 1010.47 1010.49 1010.40 1010.40 1010.23 1010.23 1010.22 1009.87 1009.88 1009.80 1009.77 1008.89 1008.64 1007.73 1007.29 1007.09 1006.53 1006.13 1006.00 1005.94 1006.00 1005.83 1005.92 1005.92 1006.37 1007.73 1008.24 1008.35 1008.43 1008.20 1007.79 1007.57
1016.86 1016.55 1015.81 1015.11 1014.15 1013.54 1013.35 1012.99 1012.48 1012.16 1011.59 1011.28 1011.19 1011.05 1011.04 1011.08 1011.02 1010.72 1010.64 1010.48 1010.47 1010.69 1010.49 1010.37 1009.62 1009.06 1007.79 1007.80 1007.34 1006.64 1006.14 1006.06 1006.03 1006.18 1005.86 1006.16 1006.38 1007.10 1007.88 1008.66 1009.15 1009.19 1009.02 1008.72 1008.27
Thickness
5734 5738 5740 5742 5745 5748 5751 5753 5756 5759 5762 5766 5769 5773 5777 5782 5790 5795 5800 5817 5820 5823 5823 5821 5821 5819 5818 5810 5811 5806 5781 5771 5778 5775 5786 5797 5791 5798 5804 5793 5796 5798 5792 5795 5788
5733 5736 5739 5742 5746 5749 5752 5754 5757 5760 5763 5767 5771 5775 5779 5783 5791 5798 5817 5821 5822 5823 5820 5815 5810 5814 5806 5803 5802 5793 5775 5779 5794 5797 5792 5796 5795 5794 5791 5788 5787 5788 5792 5792 5787
5733 5735 5739 5743 5746 5750 5753 5756 5759 5762 5765 5769 5774 5778 5783 5786 5795 5808 5821 5822 5823 5824 5823 5820 5816 5811 5800 5800 5797 5790 5777 5792 5800 5801 5803 5796 5793 5799 5790 5782 5793 5789 5785 5785 5782
5735 5737 5740 5744 5747 5751 5754 5758 5761 5764 5768 5772 5777 5781 5785 5789 5777 5816 5823 5826 5824 5824 5820 5814 5811 5800 5793 5787 5795 5782 5796 5798 5804 5803 5800 5793 5800 5792 5793 5797 5806 5804 5796 5788 5780
5737 5740 5743 5746 5750 5753 5757 5761 5764 5767 5771 5775 5779 5783 5790 5789 5799 5821 5823 5824 5823 5821 5814 5809 5802 5797 5786 5790 5793 5786 5797 5804 5807 5802 5801 5801 5794 5794 5795 5804 5805 5801 5793 5788 5784
5739 5742 5746 5749 5752 5756 5760 5764 5767 5769 5773 5776 5780 5783 5790 5782 5819 5821 5822 5822 5822 5818 5812 5813 5806 5805 5794 5790 5786 5796 5798 5802 5806 5801 5801 5793 5792 5793 5801 5802 5794 5791 5787 5785 5783
5740 5744 5747 5751 5755 5759 5762 5766 5769 5772 5775 5777 5780 5784 5787 5800 5821 5820 5822 5821 5822 5820 5810 5814 5814 5803 5799 5792 5798 5797 5790 5800 5799 5798 5794 5799 5783 5787 5801 5800 5791 5785 5785 5783 5783
5740 5744 5748 5752 5755 5759 5763 5768 5772 5774 5776 5778 5780 5784 5791 5820 5820 5820 5821 5818 5821 5822 5819 5817 5816 5804 5797 5799 5795 5783 5783 5770 5793 5794 5797 5794 5779 5802 5800 5793 5790 5789 5785 5782 5783
5741 5745 5748 5751 5755 5759 5763 5768 5773 5776 5777 5778 5780 5784 5792 5820 5813 5823 5823 5813 5814 5814 5815 5815 5808 5791 5793 5779 5775 5773 5760 5763 5776 5795 5791 5785 5784 5799 5798 5793 5787 5789 5789 5786 5784
5741 5745 5749 5752 5755 5758 5763 5768 5771 5773 5775 5777 5780 5779 5803 5802 5815 5817 5819 5817 5808 5804 5799 5796 5789 5781 5777 5773 5751 5754 5757 5765 5766 5783 5786 5783 5786 5796 5792 5789 5789 5789 5789 5785 5783
5740 5744 5748 5751 5754 5756 5761 5766 5768 5769 5772 5787 5789 5790 5800 5812 5817 5811 5813 5808 5805 5797 5779 5781 5775 5768 5775 5771 5767 5763 5760 5759 5782 5792 5779 5782 5787 5801 5793 5785 5784 5788 5788 5787 5789
5740 5744 5747 5750 5751 5752 5754 5770 5779 5783 5778 5786 5785 5788 5798 5804 5795 5802 5812 5794 5787 5774 5777 5774 5768 5781 5777 5773 5767 5766 5763 5770 5785 5789 5785 5786 5788 5805 5799 5795 5795 5793 5790 5789 5791
5741 5744 5746 5747 5747 5748 5756 5770 5778 5782 5773 5782 5786 5789 5797 5801 5795 5795 5804 5793 5782 5771 5771 5766 5775 5779 5776 5773 5768 5774 5765 5770 5768 5781 5785 5781 5788 5789 5789 5792 5793 5795 5795 5792 5791
5740 5743 5745 5746 5745 5754 5762 5773 5774 5777 5764 5772 5780 5793 5795 5799 5790 5807 5809 5798 5782 5772 5767 5770 5782 5774 5773 5770 5774 5765 5781 5777 5771 5771 5759 5771 5757 5783 5783 5787 5787 5793 5792 5793 5794
5740 5744 5745 5744 5751 5758 5769 5771 5774 5772 5739 5775 5779 5803 5795 5791 5796 5791 5807 5796 5774 5771 5769 5772 5774 5771 5769 5778 5780 5778 5784 5777 5772 5770 5764 5763 5755 5785 5785 5789 5793 5795 5798 5798 5798
5743 5745 5745 5742 5745 5762 5766 5770 5772 5754 5732 5766 5779 5777 5779 5786 5787 5789 5791 5798 5791 5775 5772 5777 5787 5783 5785 5787 5787 5789 5781 5775 5769 5766 5757 5756 5757 5781 5783 5783 5789 5801 5803 5802 5800
5747 5749 5744 5747 5762 5762 5765 5768 5752 5747 5771 5761 5768 5778 5778 5774 5778 5783 5776 5772 5765 5753 5754 5772 5780 5788 5792 5781 5785 5781 5775 5755 5751 5753 5752 5758 5754 5783 5793 5795 5792 5796 5806 5807 5805
5747 5748 5748 5752 5758 5761 5767 5761 5742 5758 5765 5779 5775 5774 5769 5775 5776 5774 5770 5765 5770 5769 5757 5755 5759 5784 5793 5791 5787 5777 5778 5757 5729 5742 5755 5759 5765 5789 5801 5802 5802 5806 5808 5811 5804
5743 5747 5751 5759 5760 5759 5765 5746 5750 5761 5772 5772 5773 5768 5768 5774 5776 5771 5768 5769 5778 5778 5758 5754 5760 5791 5794 5797 5794 5768 5764 5780 5756 5743 5752 5765 5785 5801 5801 5802 5803 5807 5809 5811 5809
5750 5755 5758 5760 5760 5764 5758 5738 5754 5767 5775 5776 5766 5772 5763 5767 5768 5767 5763 5772 5774 5780 5790 5776 5758 5788 5793 5796 5787 5784 5785 5765 5762 5739 5735 5762 5763 5778 5793 5795 5799 5803 5806 5807 5809
5754 5757 5758 5760 5762 5762 5746 5747 5757 5776 5776 5774 5772 5770 5767 5766 5768 5764 5763 5770 5776 5778 5779 5778 5770 5778 5787 5783 5782 5772 5773 5765 5770 5760 5749 5742 5767 5799 5794 5798 5796 5800 5803 5805 5805
5755 5746 5758 5761 5751 5733 5746 5749 5758 5771 5777 5778 5779 5774 5767 5763 5764 5764 5762 5766 5775 5776 5766 5773 5770 5762 5776 5789 5787 5785 5780 5782 5767 5745 5744 5754 5767 5803 5802 5800 5798 5800 5802 5803 5801
5745 5744 5757 5759 5740 5739 5745 5751 5757 5764 5763 5768 5764 5765 5765 5758 5752 5757 5758 5768 5770 5769 5762 5766 5758 5753 5766 5777 5780 5775 5774 5776 5775 5770 5745 5747 5765 5799 5801 5800 5798 5793 5798 5800 5798
5740 5737 5745 5743 5732 5737 5737 5741 5748 5760 5755 5758 5756 5760 5757 5750 5750 5751 5754 5761 5763 5764 5755 5760 5754 5752 5748 5759 5762 5764 5769 5767 5776 5761 5757 5761 5771 5792 5794 5787 5783 5786 5790 5795 5796
5726 5715 5714 5729 5729 5728 5731 5733 5738 5740 5752 5754 5750 5747 5746 5741 5744 5744 5747 5754 5759 5754 5755 5756 5742 5742 5752 5754 5752 5757 5764 5762 5761 5765 5755 5767 5756 5780 5774 5767 5769 5775 5783 5789 5791
5715 5712 5713 5714 5714 5722 5720 5723 5729 5735 5737 5739 5739 5743 5743 5738 5741 5736 5738 5736 5740 5746 5743 5745 5737 5735 5740 5750 5747 5746 5759 5758 5759 5754 5756 5756 5759 5777 5762 5761 5761 5764 5769 5774 5778
5696 5699 5704 5699 5712 5718 5714 5716 5721 5724 5734 5737 5735 5735 5732 5736 5740 5745 5746 5745 5743 5732 5729 5727 5732 5726 5729 5737 5738 5733 5753 5756 5755 5758 5764 5747 5765 5763 5756 5749 5747 5752 5757 5760 5767